• In Deutschland
  • Länderverzeichnis
  • Für 7 Tage
  • Wassertemperatur
  • Satellitenkarten
  • Wetterkarte
  • Widgets
  • user-avatar
    Anmelden

    Stündliche Wetter Bad Saulgau

    Heute, 11 Dezember, Montag

    Zeit Temperatur Niederschläge Wind Luftdruck Luftfeuchtigkeit
    00:00 0°C° 0,6 mm 4 m/S 687 mmHg 90%
    01:00 0°C° 0 mm 4 m/S 687 mmHg 89%
    02:00 +1°C° 0,4 mm 3 m/S 687 mmHg 90%
    03:00 +1°C° 0,4 mm 3 m/S 686 mmHg 90%
    04:00 +2°C° 0,4 mm 2 m/S 686 mmHg 91%
    05:00 +2°C° 0,3 mm 2 m/S 685 mmHg 90%
    06:00 +2°C° 0,3 mm 2 m/S 684 mmHg 89%
    07:00 +2°C° 0,3 mm 2 m/S 684 mmHg 89%
    08:00 +2°C° 0,3 mm 2 m/S 683 mmHg 90%
    09:00 +3°C° 0,3 mm 1 m/S 683 mmHg 91%
    10:00 +3°C° 0,3 mm 1 m/S 682 mmHg 92%
    11:00 +3°C° 0,1 mm 1 m/S 682 mmHg 92%
    12:00 +4°C° 0,1 mm 1 m/S 682 mmHg 93%
    13:00 +4°C° 0,1 mm 1 m/S 682 mmHg 94%
    14:00 +4°C° 0,1 mm 1 m/S 683 mmHg 93%
    15:00 +4°C° 0,1 mm 1 m/S 683 mmHg 91%
    16:00 +3°C° 0,1 mm 2 m/S 684 mmHg 90%
    17:00 +3°C° 0,3 mm 2 m/S 685 mmHg 91%
    18:00 +2°C° 0,3 mm 3 m/S 686 mmHg 92%
    19:00 +2°C° 0,3 mm 3 m/S 687 mmHg 93%
    20:00 +2°C° 0,8 mm 3 m/S 687 mmHg 93%
    21:00 0°C° 0,8 mm 4 m/S 688 mmHg 93%
    22:00 0°C° 0,8 mm 4 m/S 688 mmHg 93%
    23:00 0°C° 0,5 mm 4 m/S 688 mmHg 91%

    Morgen, 12 Dezember, Dienstag

    Zeit Temperatur Niederschläge Wind Luftdruck Luftfeuchtigkeit
    00:00 0°C° 0,5 mm 5 m/S 689 mmHg 90%
    01:00 0°C° 0,5 mm 5 m/S 689 mmHg 88%
    02:00 0°C° 0,3 mm 5 m/S 690 mmHg 88%
    03:00 0°C° 0,3 mm 5 m/S 691 mmHg 89%
    04:00 0°C° 0,3 mm 5 m/S 692 mmHg 89%
    05:00 0°C° 0,2 mm 5 m/S 693 mmHg 88%
    06:00 -2°C° 0,2 mm 6 m/S 694 mmHg 86%
    07:00 -2°C° 0,2 mm 6 m/S 696 mmHg 85%
    08:00 -1°C° 0,2 mm 5 m/S 697 mmHg 85%
    09:00 -2°C° 0,2 mm 5 m/S 698 mmHg 86%
    10:00 -2°C° 0,2 mm 5 m/S 699 mmHg 86%
    11:00 -1°C° 0,2 mm 5 m/S 700 mmHg 85%
    12:00 -1°C° 0,2 mm 4 m/S 701 mmHg 85%
    13:00 -1°C° 0,2 mm 4 m/S 702 mmHg 85%
    14:00 -1°C° 0,3 mm 4 m/S 702 mmHg 86%
    15:00 -1°C° 0,3 mm 3 m/S 703 mmHg 88%
    16:00 -1°C° 0,3 mm 3 m/S 704 mmHg 89%
    17:00 -1°C° 0,2 mm 3 m/S 704 mmHg 91%
    18:00 -2°C° 0,2 mm 3 m/S 705 mmHg 92%
    19:00 -2°C° 0,2 mm 3 m/S 706 mmHg 93%
    20:00 -4°C° 0 mm 3 m/S 706 mmHg 93%
    21:00 -4°C° 0 mm 3 m/S 707 mmHg 93%
    22:00 -5°C° 0 mm 3 m/S 708 mmHg 93%
    23:00 -5°C° 0 mm 3 m/S 708 mmHg 93%

    übermorgen, 13 Dezember, Mittwoch

    Zeit Temperatur Niederschläge Wind Luftdruck Luftfeuchtigkeit
    00:00 -5°C° 0 mm 3 m/S 708 mmHg 93%
    01:00 -5°C° 0 mm 3 m/S 709 mmHg 93%
    02:00 -6°C° 0 mm 3 m/S 708 mmHg 93%
    03:00 -6°C° 0 mm 3 m/S 708 mmHg 92%
    04:00 -6°C° 0 mm 3 m/S 708 mmHg 92%
    05:00 -6°C° 0 mm 3 m/S 708 mmHg 90%
    06:00 -6°C° 0 mm 3 m/S 708 mmHg 89%
    07:00 -7°C° 0 mm 3 m/S 708 mmHg 87%
    08:00 -6°C° 0 mm 3 m/S 708 mmHg 83%
    09:00 -5°C° 0 mm 3 m/S 708 mmHg 79%
    10:00 -5°C° 0 mm 4 m/S 707 mmHg 74%
    11:00 -3°C° 0 mm 4 m/S 706 mmHg 71%
    12:00 -2°C° 0 mm 4 m/S 705 mmHg 68%
    13:00 0°C° 0 mm 3 m/S 704 mmHg 65%
    14:00 -1°C° 0,1 mm 4 m/S 704 mmHg 68%
    15:00 -1°C° 0,1 mm 4 m/S 703 mmHg 72%
    16:00 -1°C° 0,1 mm 4 m/S 703 mmHg 76%
    17:00 -1°C° 0,2 mm 4 m/S 703 mmHg 77%
    18:00 -1°C° 0,2 mm 4 m/S 702 mmHg 78%
    19:00 -1°C° 0,2 mm 4 m/S 702 mmHg 78%
    20:00 -1°C° 0,2 mm 4 m/S 702 mmHg 80%
    21:00 -1°C° 0,2 mm 4 m/S 701 mmHg 81%
    22:00 -1°C° 0,2 mm 4 m/S 701 mmHg 82%
    23:00 -1°C° 0,5 mm 4 m/S 700 mmHg 83%

    14 Dezember, Donnerstag

    Zeit Temperatur Niederschläge Wind Luftdruck Luftfeuchtigkeit
    00:00 0°C° 0,5 mm 5 m/S 700 mmHg 84%
    01:00 0°C° 0,5 mm 5 m/S 699 mmHg 85%
    02:00 0°C° 0,5 mm 5 m/S 699 mmHg 87%
    03:00 0°C° 0,5 mm 5 m/S 698 mmHg 88%
    04:00 +1°C° 0,5 mm 6 m/S 698 mmHg 89%
    05:00 +1°C° 0,6 mm 6 m/S 698 mmHg 90%
    06:00 +1°C° 0,6 mm 5 m/S 698 mmHg 92%
    07:00 +2°C° 0,6 mm 5 m/S 698 mmHg 93%
    08:00 +2°C° 0,5 mm 5 m/S 698 mmHg 92%
    09:00 +2°C° 0,5 mm 5 m/S 698 mmHg 92%
    10:00 +2°C° 0,5 mm 5 m/S 697 mmHg 92%
    11:00 +2°C° 0,2 mm 6 m/S 697 mmHg 89%
    12:00 +3°C° 0,2 mm 6 m/S 696 mmHg 87%
    13:00 +3°C° 0,2 mm 7 m/S 696 mmHg 84%
    14:00 +3°C° 0,2 mm 7 m/S 695 mmHg 83%
    15:00 +3°C° 0,2 mm 7 m/S 694 mmHg 82%
    16:00 +2°C° 0,2 mm 8 m/S 693 mmHg 81%
    17:00 +2°C° 2 mm 8 m/S 694 mmHg 83%
    18:00 +2°C° 2 mm 7 m/S 694 mmHg 85%
    19:00 +2°C° 2 mm 7 m/S 694 mmHg 87%
    20:00 +1°C° 1,9 mm 6 m/S 695 mmHg 88%
    21:00 +1°C° 1,9 mm 5 m/S 695 mmHg 89%
    22:00 0°C° 1,9 mm 4 m/S 695 mmHg 90%
    23:00 0°C° 1,4 mm 4 m/S 695 mmHg 91%

    15 Dezember, Freitag

    Zeit Temperatur Niederschläge Wind Luftdruck Luftfeuchtigkeit
    00:00 0°C° 1,4 mm 4 m/S 695 mmHg 92%
    01:00 0°C° 1,4 mm 3 m/S 695 mmHg 92%
    02:00 0°C° 1,4 mm 3 m/S 695 mmHg 93%
    03:00 0°C° 1,4 mm 3 m/S 695 mmHg 95%
    04:00 0°C° 1,4 mm 3 m/S 695 mmHg 96%
    05:00 +1°C° 1,2 mm 2 m/S 694 mmHg 96%
    06:00 +1°C° 1,2 mm 2 m/S 694 mmHg 96%
    07:00 +1°C° 1,2 mm 2 m/S 694 mmHg 96%
    08:00 +1°C° 0,8 mm 2 m/S 694 mmHg 96%
    09:00 +2°C° 0,8 mm 1 m/S 694 mmHg 96%
    10:00 +2°C° 0,8 mm 1 m/S 693 mmHg 97%
    11:00 +2°C° 0,4 mm 1 m/S 693 mmHg 96%
    12:00 +1°C° 0,4 mm 2 m/S 693 mmHg 96%
    13:00 +1°C° 0,4 mm 2 m/S 693 mmHg 95%
    14:00 +1°C° 0,2 mm 2 m/S 693 mmHg 94%
    15:00 0°C° 0,2 mm 3 m/S 693 mmHg 93%
    16:00 0°C° 0,2 mm 3 m/S 694 mmHg 92%
    17:00 -1°C° 0,1 mm 3 m/S 694 mmHg 92%
    18:00 -2°C° 0,1 mm 3 m/S 694 mmHg 92%
    19:00 -2°C° 0,1 mm 3 m/S 694 mmHg 92%
    20:00 -2°C° 0,1 mm 3 m/S 695 mmHg 91%
    21:00 -2°C° 0,1 mm 3 m/S 695 mmHg 91%
    22:00 -2°C° 0,1 mm 3 m/S 695 mmHg 91%
    23:00 -3°C° 0,4 mm 4 m/S 696 mmHg 91%

    16 Dezember, Samstag

    Zeit Temperatur Niederschläge Wind Luftdruck Luftfeuchtigkeit
    00:00 -3°C° 0,4 mm 4 m/S 696 mmHg 92%
    01:00 -2°C° 0,4 mm 5 m/S 696 mmHg 92%
    02:00 -4°C° 0,3 mm 5 m/S 697 mmHg 91%
    03:00 -4°C° 0,3 mm 5 m/S 697 mmHg 91%
    04:00 -4°C° 0,3 mm 5 m/S 698 mmHg 90%
    05:00 -4°C° 0,2 mm 5 m/S 698 mmHg 91%
    06:00 -4°C° 0,2 mm 5 m/S 699 mmHg 92%
    07:00 -4°C° 0,2 mm 4 m/S 700 mmHg 92%
    08:00 -4°C° 0,2 mm 5 m/S 700 mmHg 91%
    09:00 -4°C° 0,2 mm 5 m/S 701 mmHg 91%
    10:00 -2°C° 0,2 mm 5 m/S 702 mmHg 90%
    11:00 -2°C° 0,1 mm 5 m/S 702 mmHg 89%
    12:00 -2°C° 0,1 mm 5 m/S 702 mmHg 89%
    13:00 -2°C° 0,1 mm 5 m/S 702 mmHg 89%
    14:00 -2°C° 0,3 mm 5 m/S 702 mmHg 89%
    15:00 -2°C° 0,3 mm 5 m/S 703 mmHg 90%
    16:00 -2°C° 0,3 mm 5 m/S 703 mmHg 90%
    17:00 -4°C° 0,4 mm 5 m/S 704 mmHg 91%
    18:00 -3°C° 0,4 mm 4 m/S 704 mmHg 91%
    19:00 -4°C° 0,4 mm 4 m/S 705 mmHg 92%
    20:00 -4°C° 0,2 mm 4 m/S 705 mmHg 92%
    21:00 -4°C° 0,2 mm 4 m/S 705 mmHg 92%
    22:00 -5°C° 0,2 mm 4 m/S 706 mmHg 92%
    23:00 -5°C° 0,1 mm 4 m/S 706 mmHg 92%
    Mehr zeigen